Location: Rounton
(54.4000°N, 1.3500°W)
Time: 13:17:21
(UTC+00:00)

Transit 2A - Pass Details

Date: 09 December 2021
Orbit: 591 x 967 km, 66.7° (Epoch: 17 January)

Event Time Altitude Azimuth Distance (km) Brightness Sun altitude
Rises 07:52:36 0° 317° (NW) 3,662 - -3.3°
Exits shadow 07:53:33 - 315° (NW) 3,324 8.6 -3.2°
Reaches altitude 10° 07:55:18 10° 311° (NW) 2,717 8.2 -3.0°
Maximum altitude 08:01:17 43° 243° (WSW) 1,315 7.1 -2.3°
Drops below altitude 10° 08:07:03 10° 174° (S) 2,614 9.5 -1.7°
Sets 08:09:36 0° 167° (SSE) 3,510 10.4 -1.4°
